Location: Unspecified
(47.5840°N, 122.3000°W)
Time: 22:27:57
(UTC+00:00)

IRAS Rocket - Pass Details

Date: 04 August 2024
Orbit: 846 x 876 km, 100.1° (Epoch: 16 September)

Event Time Altitude Azimuth Distance (km) Brightness Sun altitude
Rises 11:58:23 0° 14° (NNE) 3,475 8.3 -8.4°
Reaches altitude 10° 12:00:46 10° 13° (NNE) 2,536 7.5 -8.1°
Maximum altitude 12:06:23 71° 291° (WNW) 927 4.3 -7.3°
Drops below altitude 10° 12:11:58 10° 208° (SSW) 2,524 6.1 -6.6°
Enters shadow 12:13:35 - 206° (SSW) 3,156 6.6 -6.3°
